GEFSCGP_500_meanwind_138.txt.gz
Wind_Speed
23 24 24 24 24 24 23 21 21 21 21 20 19 17 15 14 12 11 9 8 8 6 6 5 4 3 2 1 0 1 2 3 3 4 5 6 7 8 9 10 11 12 13 14
23 24 24 24 24 24 23 22 21 21 20 20 18 17 16 14 13 11 10 9 8 8 7 6 5 4 3 2 0 1 1 2 3 4 5 6 7 7 8 9 10 12 13 13
23 24 24 23 23 24 23 22 20 20 20 20 19 18 17 15 13 11 11 11 9 9 8 7 6 5 4 3 2 1 1 2 2 3 4 5 6 7 7 8 9 11 12 13
23 23 23 22 22 22 21 20 19 19 19 20 20 18 17 15 13 12 11 11 10 9 9 8 7 7 6 4 3 2 2 2 2 2 3 4 5 6 7 8 9 10 11 12
21 22 22 22 22 22 21 20 19 20 20 19 19 18 17 16 14 12 11 10 10 9 8 8 9 8 7 5 4 4 3 2 2 3 3 4 5 5 6 7 8 9 10 11
18 20 21 22 21 20 20 20 20 20 20 20 20 19 17 16 15 13 12 11 10 9 9 9 9 9 7 6 5 5 4 3 3 3 2 3 4 5 6 6 7 9 10 11
17 18 19 21 20 19 20 20 20 21 21 21 19 18 17 16 15 14 13 12 11 10 10 10 9 9 8 7 6 6 5 4 3 3 2 2 3 4 5 6 7 8 9 11
15 17 18 19 19 18 19 20 21 21 21 19 18 18 17 16 14 14 13 12 11 11 11 10 10 9 9 8 7 7 5 5 4 3 2 1 2 3 4 5 6 7 8 10
14 15 16 17 17 17 19 20 20 21 19 18 17 17 16 15 14 14 13 12 12 12 12 11 11 10 10 9 8 7 6 5 4 3 2 1 1 2 3 4 5 7 8 9
13 14 15 15 16 17 18 19 20 20 19 18 17 16 16 15 14 14 14 13 12 13 13 12 12 12 11 10 9 8 7 6 5 4 3 1 1 2 2 3 5 6 7 8
12 13 14 15 16 16 17 18 19 19 18 18 16 16 15 15 14 14 14 14 13 13 14 13 13 13 12 11 10 9 8 7 6 5 4 3 2 2 3 4 5 6 7 8
12 12 13 15 16 16 17 18 19 19 17 17 16 16 15 15 15 15 15 14 14 14 14 14 14 13 13 12 11 10 9 8 8 7 6 5 4 4 4 5 6 7 7 8
11 11 12 14 15 16 17 17 17 17 17 16 17 16 16 16 16 16 16 16 15 16 16 15 14 14 13 13 12 11 11 10 9 8 8 7 6 6 6 7 7 8 9 9
10 10 12 13 15 15 16 16 17 17 17 15 14 15 16 16 16 16 16 16 15 16 16 15 15 15 14 13 13 12 12 11 11 10 9 9 8 8 8 9 9 10 11 12
9 9 11 13 14 15 16 16 17 17 16 15 14 15 16 16 17 16 17 17 16 16 16 15 15 15 15 15 14 13 13 12 12 11 11 11 10 10 10 11 11 12 13 13
9 9 10 12 13 14 15 16 17 17 16 16 16 16 17 17 17 17 17 18 17 17 16 16 16 16 16 16 15 15 14 14 14 13 13 13 12 12 12 13 13 14 15 15
10 10 10 11 12 13 14 14 15 16 15 16 16 17 18 18 18 17 18 18 17 17 17 17 17 17 16 16 16 16 16 16 15 15 15 14 14 14 15 15 16 16 17 18
12 12 12 12 13 13 13 14 15 15 15 16 16 17 19 18 18 18 19 18 18 18 18 18 17 17 17 17 17 17 17 17 17 17 16 16 16 16 17 18 18 19 19 20
14 14 14 14 14 13 13 13 15 15 15 16 17 18 19 19 19 19 19 19 19 19 19 19 18 18 18 18 18 18 18 18 18 19 18 18 19 19 20 20 20 21 22 22
16 16 16 16 15 14 14 15 15 15 15 17 18 19 19 19 19 19 20 20 20 19 19 20 20 20 20 20 19 19 20 20 20 20 20 20 21 21 22 23 23 24 24 25
18 18 18 17 17 15 15 16 17 16 16 18 19 19 19 19 19 20 21 21 20 20 20 20 20 20 21 20 20 20 21 21 21 21 22 23 23 23 24 25 26 26 27 27
19 20 19 19 19 17 17 17 18 17 18 18 18 18 19 19 20 20 20 20 20 20 21 21 21 22 22 22 22 22 22 22 23 23 23 24 25 26 26 27 28 29 29 30
22 21 21 21 20 20 20 20 19 19 19 19 20 20 20 20 20 21 21 21 21 22 22 22 23 23 23 23 23 23 24 24 24 25 26 26 27 28 29 29 30 30 31 32
24 24 24 23 22 21 22 22 22 21 21 21 21 21 21 22 22 22 23 23 23 23 23 23 23 24 24 25 25 26 26 26 26 27 28 28 29 30 31 31 32 33 34 34
26 25 25 25 24 24 24 24 24 24 23 24 24 23 23 23 24 24 24 25 25 25 25 25 26 26 27 27 28 28 28 28 28 29 30 31 32 32 33 34 35 35 36 37
27 27 27 27 27 28 27 26 26 26 26 26 26 25 25 25 26 26 26 27 27 27 27 27 27 28 29 29 29 29 29 30 31 31 32 33 34 35 36 37 38 38 40 40

GEFSCGP_500_meanwind_144.txt.gz
Wind_Speed
19 20 19 20 20 19 18 17 17 18 17 16 16 15 13 12 12 11 10 10 8 7 7 7 6 5 4 3 2 1 1 1 3 4 5 6 7 8 9 10 12 13 13 14
18 19 20 20 19 20 19 18 18 18 17 17 15 15 14 12 12 11 10 9 8 8 8 7 6 6 5 4 3 2 1 1 2 3 4 5 6 7 8 10 11 12 12 14
17 18 18 19 18 18 19 19 18 19 18 16 15 14 14 13 12 11 10 9 9 8 8 7 6 6 6 5 4 3 2 1 1 2 4 4 5 7 8 9 10 11 11 13
17 18 18 18 19 19 19 20 18 18 18 17 16 14 15 13 12 13 11 10 10 9 8 8 7 7 7 6 5 3 2 2 1 2 3 4 5 6 7 8 9 10 11 12
14 16 17 19 19 19 19 18 18 17 17 17 16 15 15 14 13 13 12 11 10 9 9 9 8 8 7 7 6 5 3 3 2 2 2 2 3 5 6 7 8 9 10 11
14 16 17 18 18 18 17 17 18 17 16 16 16 17 17 15 14 13 12 11 11 10 10 10 9 8 8 8 7 6 5 4 3 2 1 1 2 4 5 6 7 8 9 11
12 14 15 17 16 16 16 16 17 17 17 17 16 17 17 16 15 13 12 12 12 11 11 10 9 8 8 8 7 6 6 5 4 2 1 0 1 3 4 5 6 7 9 10
11 12 14 16 17 16 16 16 15 15 16 15 16 17 18 16 15 15 13 12 12 12 11 10 10 9 9 9 8 8 7 6 5 4 3 2 1 2 3 4 5 6 7 9
9 11 13 15 16 17 16 16 13 13 13 12 14 14 15 16 16 15 14 13 13 13 12 11 11 10 10 10 9 8 8 7 6 5 4 3 2 2 3 4 4 5 6 8
8 9 11 14 14 14 15 15 15 14 13 13 12 12 12 14 14 14 14 14 14 14 13 12 12 11 11 11 10 10 9 8 7 6 5 4 3 3 3 3 4 5 6 7
9 9 10 12 13 14 15 15 15 15 14 12 12 13 13 14 14 14 14 14 13 14 14 13 13 13 12 12 11 11 10 9 8 7 6 5 5 4 4 4 4 5 6 7
9 8 8 10 12 13 15 15 15 16 16 15 13 12 12 12 13 13 14 14 13 13 14 14 14 14 14 13 12 11 11 10 9 9 8 7 6 5 5 5 5 6 6 7
10 9 8 9 10 12 13 15 16 16 15 14 13 12 12 13 14 14 14 14 14 14 14 15 15 15 15 14 13 12 12 11 11 10 10 9 8 7 7 7 7 7 7 8
10 10 10 9 8 11 12 15 15 16 15 13 13 13 13 13 14 15 15 15 15 15 15 15 15 15 15 15 14 14 13 12 12 11 11 10 10 9 9 9 9 9 9 10
11 10 10 10 9 10 12 14 15 15 16 15 14 14 14 14 15 16 15 16 16 15 15 15 15 16 15 15 15 14 14 13 13 13 12 12 12 12 11 11 11 11 11 12
10 10 10 9 10 10 11 13 14 15 16 17 16 15 14 14 15 16 16 16 17 16 16 16 16 16 16 16 16 15 15 14 14 14 14 14 14 14 13 13 13 13 13 14
10 10 9 8 9 10 11 11 13 15 16 16 17 16 16 16 16 16 17 17 17 18 17 17 17 17 17 17 17 16 16 16 16 15 16 15 15 15 15 15 15 15 15 16
12 11 10 9 10 11 10 11 12 13 15 16 16 17 18 18 17 17 17 16 17 18 18 18 18 18 18 18 18 18 17 17 17 17 17 17 17 17 16 17 17 17 17 17
13 13 12 11 11 10 10 11 11 12 14 15 16 17 18 18 18 18 18 18 18 18 19 19 19 19 19 19 19 19 19 19 19 19 19 19 19 19 19 19 19 19 19 19
14 14 13 12 12 11 11 11 12 12 14 15 16 17 17 18 18 18 18 18 18 19 20 19 19 19 19 19 19 19 20 20 20 20 21 21 21 21 21 21 21 21 21 21
16 16 15 14 14 13 13 13 13 15 16 16 16 17 18 18 18 18 18 19 19 20 20 20 20 20 20 21 21 21 21 21 22 23 23 23 23 23 23 23 23 23 23 24
17 17 16 16 16 16 16 15 15 16 16 17 17 18 18 18 19 19 19 20 20 21 21 21 21 22 22 23 23 22 22 23 23 24 24 24 24 24 24 24 25 25 25 26
20 19 18 18 19 19 19 18 17 18 18 18 18 19 20 20 20 20 20 20 21 21 21 22 22 23 24 23 23 23 24 24 24 25 25 25 25 25 25 26 26 27 27 28
21 21 22 22 22 23 22 21 21 21 21 21 20 20 21 21 21 21 21 21 22 22 22 23 23 23 23 23 23 24 25 26 26 26 26 26 26 27 27 28 29 29 30 30
24 24 24 23 23 24 24 24 23 22 23 23 23 22 22 22 22 22 22 23 23 23 23 23 23 23 23 24 25 26 26 27 27 27 28 28 28 29 29 30 31 31 32 33
27 27 27 27 26 27 26 24 24 23 24 24 24 24 24 23 23 24 24 24 24 25 25 24 24 25 25 26 26 27 27 28 29 29 29 30 31 31 31 32 32 33 35 35

GEFSCGP_500_meanwind_150.txt.gz
Wind_Speed
14 15 15 15 15 16 17 16 15 15 13 13 13 14 13 12 12 11 10 9 9 9 8 9 7 7 6 5 4 3 2 2 2 3 4 5 6 8 9 11 12 13 13 14
12 14 15 16 16 15 16 16 15 15 14 14 14 14 14 13 12 11 10 10 10 10 9 9 8 8 7 6 5 3 2 2 2 2 3 4 6 7 8 10 11 12 13 14
11 12 14 15 16 15 15 15 15 15 14 14 14 14 14 14 12 11 11 11 10 9 10 10 9 9 8 7 6 4 3 3 3 2 3 4 5 6 7 8 9 10 11 13
10 11 14 15 14 15 16 15 15 15 14 14 15 15 15 15 13 13 12 12 10 10 10 10 10 10 9 8 7 5 4 3 3 3 2 3 3 4 6 7 8 9 10 12
10 11 13 14 14 14 14 15 15 16 14 14 15 16 15 15 14 13 12 13 11 11 10 10 10 10 9 9 8 7 5 4 4 3 2 2 2 3 4 6 6 8 9 10
9 10 12 13 14 14 15 14 15 15 15 14 14 15 14 13 12 12 12 12 12 11 10 10 10 10 10 9 9 7 6 5 5 3 2 2 1 2 3 4 5 6 7 8
8 9 10 12 14 14 15 14 14 15 15 13 13 14 12 12 11 12 13 12 12 11 11 11 11 10 10 9 8 7 7 6 5 4 3 2 1 1 2 3 4 5 6 7
8 9 10 11 12 13 14 14 14 13 13 13 13 13 12 11 12 12 13 12 12 12 11 12 11 11 11 10 9 8 7 7 6 5 4 3 1 1 1 2 3 4 5 6
7 8 10 11 12 14 14 14 13 13 12 13 13 12 11 11 12 13 12 12 12 12 11 11 12 12 11 10 9 9 8 8 7 6 5 4 2 1 0 1 2 3 4 5
6 7 10 11 13 13 14 15 14 12 12 12 12 11 11 11 12 12 13 13 12 13 12 12 13 12 12 11 10 10 10 9 8 7 6 5 4 2 1 1 1 2 2 3
6 7 8 11 11 12 13 14 13 13 12 12 11 11 10 11 11 12 12 13 13 13 13 13 13 13 13 12 11 10 10 10 9 8 7 6 5 4 3 2 2 2 2 3
7 7 8 10 12 12 13 13 12 12 11 12 12 11 11 11 11 11 12 13 14 13 14 14 14 13 13 13 12 11 10 10 10 9 8 7 6 6 5 4 4 3 3 3
7 7 8 9 11 11 12 11 11 11 12 12 12 11 11 11 12 12 12 12 13 14 14 14 14 14 14 13 12 12 11 10 10 10 10 9 8 7 7 6 6 5 5 5
8 8 7 8 9 10 10 10 11 12 12 11 11 12 11 12 12 11 12 12 13 14 14 13 14 14 14 13 13 13 12 12 11 11 11 10 10 9 9 8 8 7 7 7
9 9 9 8 9 10 10 10 11 12 12 12 11 12 12 12 12 12 12 12 12 13 13 13 13 14 14 14 14 13 13 13 13 12 12 12 11 10 10 10 9 9 9 9
10 10 10 10 10 10 10 10 11 12 14 13 12 12 13 14 13 12 12 12 12 13 13 13 13 14 14 15 15 15 15 15 14 14 13 13 13 12 12 12 12 12 11 11
11 11 11 11 11 11 11 11 11 12 12 12 12 12 13 13 12 12 12 12 12 13 13 15 15 15 16 16 16 16 16 16 15 15 15 15 15 14 14 14 14 14 14 13
12 12 12 11 11 12 10 11 12 12 12 12 12 12 12 12 12 12 12 12 13 13 14 15 16 17 17 17 17 17 17 16 16 17 17 16 16 16 16 16 16 16 16 16
13 13 12 12 12 11 11 11 12 12 11 11 12 12 12 12 13 13 13 13 13 13 14 15 16 17 18 18 18 19 18 18 18 18 18 18 18 18 18 18 18 18 18 18
15 15 14 13 13 12 11 12 13 13 12 11 12 12 13 13 13 13 13 14 14 14 15 16 16 16 17 18 19 19 19 19 20 20 20 20 20 20 20 20 20 20 19 19
17 16 15 14 14 13 13 13 13 13 12 13 13 14 14 14 13 13 13 14 15 15 16 16 16 16 17 18 20 20 20 20 21 21 21 21 21 21 21 21 21 21 21 21
18 17 16 16 16 14 14 14 14 13 13 13 14 15 15 15 14 14 15 15 16 16 16 16 17 17 18 19 19 20 20 21 22 21 22 22 22 22 23 23 23 23 23 23
19 18 17 18 16 15 14 13 13 13 14 14 14 15 15 16 16 17 16 17 17 17 18 18 19 19 20 20 21 21 22 22 22 22 23 23 24 24 24 24 25 25 25 25
21 20 19 19 17 16 15 15 15 14 15 14 14 15 16 17 18 19 18 18 18 19 20 21 22 21 21 22 22 23 23 23 24 24 25 25 26 26 26 27 27 27 27 27
24 22 20 20 19 17 16 16 16 16 16 16 16 17 17 18 18 19 20 20 20 20 21 21 21 22 22 23 23 24 24 25 26 26 26 27 27 28 29 29 29 29 29 30
25 24 23 22 20 19 19 19 18 19 19 19 18 18 18 19 19 20 20 21 22 22 22 22 23 23 24 25 25 25 25 26 27 27 28 28 29 30 30 30 30 31 31 32

GEFSCGP_500_meanwind_156.txt.gz
Wind_Speed
11 12 13 13 14 14 14 14 13 14 14 14 14 15 14 13 12 12 12 12 12 12 12 11 10 8 7 6 5 5 4 3 2 2 3 4 5 7 8 10 11 12 13 14
11 11 12 12 13 13 14 13 13 14 15 14 15 15 14 14 13 13 12 12 12 13 12 11 10 9 8 7 6 5 5 3 3 2 3 3 4 6 7 9 10 11 12 12
11 11 11 11 12 13 13 13 13 14 14 15 15 15 14 14 13 13 13 13 13 14 13 11 10 9 9 8 7 6 6 4 3 3 2 2 3 5 6 8 9 10 10 11
10 11 11 11 11 12 13 13 13 13 14 14 16 16 15 14 13 12 12 13 13 13 13 11 10 9 9 9 8 7 6 5 4 3 2 2 2 3 5 6 7 8 9 10
9 11 11 11 11 12 12 13 13 13 13 14 15 16 15 14 13 13 13 13 13 13 13 12 11 10 9 9 8 8 7 5 4 3 2 1 1 2 3 4 6 7 8 8
9 10 10 11 12 12 12 13 12 11 12 13 14 16 15 13 13 13 14 13 12 12 12 12 12 11 10 10 9 9 8 7 5 4 3 2 1 1 2 3 4 5 6 7
9 9 10 11 12 12 12 12 13 12 12 12 13 13 12 13 13 13 13 13 13 13 13 13 12 12 11 10 10 9 9 8 6 5 4 3 2 1 0 1 3 4 5 5
9 9 9 10 12 12 12 12 12 13 13 12 12 12 11 12 13 13 13 14 13 13 13 14 14 13 12 11 10 10 9 8 7 6 5 4 3 2 1 0 1 2 3 4
10 10 10 11 11 12 11 11 12 12 12 12 11 11 11 12 12 13 13 14 13 13 13 14 14 13 13 12 12 11 10 9 8 7 6 4 4 3 2 1 0 1 2 3
10 10 10 10 10 10 11 11 12 12 12 11 11 10 10 11 12 12 12 13 13 14 14 14 14 14 14 14 13 12 11 10 9 8 7 6 5 4 4 3 2 1 2 2
10 10 10 10 10 10 11 12 12 12 12 11 11 11 10 11 11 12 13 14 14 14 14 15 15 15 14 14 13 13 12 11 10 9 8 7 6 6 6 5 4 3 3 3
8 9 10 10 10 10 11 12 12 12 11 11 11 10 10 10 11 12 13 14 15 15 15 15 16 15 15 14 14 13 13 12 11 10 9 8 8 7 7 7 6 5 5 5
9 9 9 10 10 10 11 11 12 13 13 13 12 11 11 12 12 12 13 14 15 15 15 16 16 16 15 15 14 13 13 13 12 11 10 10 9 9 9 9 8 7 7 7
10 9 9 9 9 10 11 11 11 12 14 14 12 12 13 13 13 12 13 14 15 16 16 17 17 17 17 17 16 15 14 14 13 12 11 11 11 10 10 10 9 9 8 8
11 10 10 10 10 10 10 11 11 11 12 13 13 13 13 13 12 12 12 13 14 15 15 16 17 17 17 17 17 16 15 14 14 14 13 12 12 11 11 11 11 11 11 10
12 12 11 11 11 11 11 11 11 11 12 12 13 12 13 12 11 12 12 13 13 14 14 15 16 17 17 17 17 16 16 15 15 15 15 14 14 13 13 13 13 13 13 13
13 13 12 12 12 11 11 10 11 11 11 11 12 12 12 12 11 11 12 12 13 13 13 14 15 17 18 17 18 17 17 17 17 16 16 16 15 15 15 15 15 15 15 15
14 13 13 13 13 12 10 11 11 11 11 11 11 11 11 11 11 11 11 12 13 14 14 15 15 16 17 18 18 18 18 18 18 18 18 18 18 17 17 17 17 17 17 17
16 15 15 14 13 11 11 11 11 11 11 11 11 11 11 11 11 11 12 13 13 14 15 15 16 16 17 18 18 18 18 18 19 19 19 20 20 20 20 19 19 19 18 19
18 17 17 15 14 13 11 12 12 11 10 11 11 11 11 12 12 12 12 13 13 14 15 15 16 16 17 18 19 19 19 19 19 20 21 21 22 22 21 21 21 21 20 21
18 18 17 16 15 12 12 13 12 11 10 11 11 12 13 13 14 14 14 14 14 14 15 15 15 15 16 17 18 18 19 20 20 21 21 21 22 22 22 23 23 23 23 23
21 19 18 17 16 13 14 13 13 12 12 12 13 14 14 14 15 14 14 15 15 16 16 16 15 16 16 17 18 19 20 21 22 22 22 22 22 22 23 23 24 24 24 25
21 20 19 18 16 15 15 15 15 15 15 15 14 14 14 15 15 14 15 15 16 17 17 17 17 18 18 19 19 20 21 22 22 22 22 23 23 24 24 24 25 25 25 26
22 21 21 20 19 17 17 16 16 16 16 16 16 16 16 16 16 16 16 16 16 17 18 18 19 19 19 20 21 22 22 23 23 23 23 23 24 25 25 26 27 27 28 28
24 23 22 22 21 20 18 18 18 19 18 18 18 18 18 18 18 17 17 18 18 18 19 19 20 20 21 21 22 23 24 24 24 24 25 25 26 26 27 28 28 29 30 30
26 25 24 23 21 21 20 19 19 18 19 19 19 19 19 19 18 18 18 18 19 20 21 21 22 22 23 23 24 24 25 25 25 26 26 27 27 27 28 29 30 30 31 32

GEFSCGP_500_meanwind_162.txt.gz
Wind_Speed
9 9 9 10 11 11 12 13 13 13 13 13 13 12 12 13 13 13 13 13 13 13 13 12 11 10 9 9 8 8 7 5 4 3 2 1 2 4 5 6 7 9 10 11
10 9 9 9 10 10 11 12 13 12 12 12 13 12 12 12 13 13 13 13 13 13 12 12 12 11 10 10 10 9 8 6 5 4 3 1 1 3 4 5 7 8 9 10
9 9 8 9 9 10 10 11 12 12 12 12 12 13 13 12 13 13 13 13 13 13 13 13 13 12 11 10 10 10 8 7 6 5 4 2 1 1 2 4 5 7 8 9
8 8 9 8 9 9 11 11 12 12 13 12 12 13 14 13 13 13 13 13 13 12 13 13 13 13 12 11 11 10 9 8 7 6 5 3 1 0 2 3 4 6 7 8
9 9 9 8 8 9 10 11 11 10 11 12 12 13 13 14 14 14 13 13 13 12 11 12 13 13 13 12 11 11 10 9 8 7 5 4 2 1 0 2 3 4 6 7
9 9 9 8 8 8 9 10 10 10 10 11 12 13 13 13 13 14 14 13 13 12 11 12 12 13 13 13 12 12 11 10 9 8 6 5 3 2 1 0 1 3 4 5
9 9 9 9 8 9 9 9 10 10 10 11 11 13 12 12 12 13 13 13 12 12 11 11 13 13 13 12 12 12 11 11 10 9 7 5 4 3 2 1 0 1 2 3
10 10 10 10 8 9 9 10 11 11 10 10 12 12 12 12 12 12 13 13 13 12 12 12 13 13 12 12 12 12 11 11 11 10 8 6 5 4 3 2 1 0 1 2
10 11 11 10 9 9 11 11 11 11 10 9 11 12 11 11 12 12 12 12 12 12 12 13 13 12 13 12 12 12 12 11 11 10 9 8 6 5 4 3 2 1 0 1
10 10 10 10 9 9 10 10 10 10 10 9 9 10 11 11 11 11 11 12 13 13 13 12 12 12 13 12 12 12 12 12 11 10 10 9 8 6 5 4 3 3 2 1
11 10 10 10 9 9 9 9 9 10 10 10 11 11 11 12 12 11 12 13 14 14 14 13 13 12 12 12 13 12 12 12 12 11 10 10 9 8 6 5 4 4 4 3
10 10 10 10 10 10 9 9 10 10 10 10 11 12 12 13 13 13 13 13 13 14 14 14 14 13 12 13 13 13 13 13 13 12 12 11 10 9 8 7 6 5 5 5
11 10 10 11 10 10 9 10 11 11 11 11 11 11 12 13 13 13 12 13 13 13 14 14 15 14 14 14 14 14 14 14 13 13 12 12 11 10 10 8 8 7 7 7
11 11 11 11 11 10 10 11 11 11 12 11 12 12 12 12 13 12 12 12 14 14 14 14 15 15 15 15 15 14 14 14 14 13 13 12 12 11 10 9 9 9 8 8
12 11 11 12 11 11 11 11 11 12 12 12 12 13 13 12 12 13 13 13 14 14 14 15 15 15 15 15 16 15 15 15 15 15 14 13 13 12 12 11 10 10 10 10
13 12 11 11 11 11 11 11 11 11 12 13 13 12 13 12 12 12 13 13 13 15 15 15 15 15 15 15 16 16 16 16 16 16 15 14 14 13 13 13 12 12 12 12
15 14 13 11 11 10 10 10 10 11 12 13 12 12 12 12 12 12 12 12 13 14 15 16 16 15 15 15 16 16 16 16 16 16 16 15 15 15 15 15 14 14 14 14
17 15 14 12 11 11 10 10 10 11 11 12 11 12 12 12 11 11 12 12 12 13 14 15 15 15 16 16 17 17 17 17 16 16 16 16 16 16 16 16 16 16 16 16
18 16 15 14 13 12 11 11 11 11 11 11 11 12 12 12 12 12 12 12 12 13 13 14 15 15 16 17 17 17 17 17 17 18 18 17 17 17 17 18 18 18 18 18
19 17 16 15 14 13 11 12 12 11 11 11 12 11 12 12 12 12 12 12 11 12 12 12 13 14 16 16 17 17 17 18 18 18 18 19 19 19 19 19 20 20 20 20
20 19 18 16 15 14 13 12 12 12 12 13 13 12 12 12 13 13 13 13 12 13 12 12 13 13 15 15 16 15 16 18 18 19 19 20 20 20 20 20 20 20 20 20
21 20 19 18 17 15 14 14 13 13 13 13 13 13 13 13 13 13 13 13 13 13 13 13 14 15 15 16 16 17 18 19 19 19 20 20 21 21 21 21 21 21 21 21
24 22 21 20 18 16 16 15 15 14 14 13 13 13 13 13 14 15 14 14 14 15 15 15 16 17 17 17 18 18 19 19 19 20 20 21 21 21 21 21 22 22 22 22
25 24 23 21 20 19 17 17 17 16 15 15 15 15 15 15 15 16 16 15 15 16 16 17 17 17 17 17 18 19 19 19 20 20 21 22 22 22 22 22 22 23 23 24
26 25 24 23 21 21 19 18 18 18 17 16 17 16 16 16 16 16 17 17 16 16 16 17 17 17 17 17 18 19 20 20 21 21 21 22 22 22 23 23 24 24 25 25
27 26 25 23 22 22 21 21 20 19 19 18 18 18 17 17 17 17 18 18 17 17 17 18 18 18 19 19 19 20 21 21 21 21 22 23 23 24 24 25 25 26 26 27

GEFSCGP_500_meanwind_168.txt.gz
Wind_Speed
10 10 10 11 12 12 12 12 12 12 12 12 12 12 13 13 13 12 11 11 11 11 10 10 10 10 9 8 7 6 5 4 3 2 2 3 4 5 6 7 8 8 9 9
10 10 11 11 12 12 12 12 12 13 11 11 11 11 11 12 11 12 11 11 11 10 10 10 10 9 9 8 7 7 6 5 3 2 2 2 3 4 5 6 7 8 8 9
10 10 11 11 12 12 12 12 12 13 11 10 11 10 9 10 11 11 11 11 11 11 10 10 10 9 10 9 8 8 7 5 4 3 2 2 2 3 4 5 6 7 7 8
11 11 11 11 11 11 10 10 12 11 10 9 10 10 9 10 10 10 11 11 11 11 11 11 11 10 10 10 9 8 7 6 5 4 3 3 2 2 3 4 5 5 6 7
11 11 10 10 10 10 9 8 8 9 10 9 10 10 10 10 11 11 11 11 11 11 11 10 10 10 10 10 9 8 9 7 6 5 4 3 2 1 2 3 4 4 4 5
11 11 11 10 9 9 9 8 7 8 9 9 9 9 10 10 11 11 10 11 11 10 10 9 9 10 10 9 9 9 9 8 7 6 5 4 3 2 1 1 3 3 3 4
11 11 11 10 9 9 9 9 8 8 8 9 9 10 10 10 10 10 10 10 10 10 9 10 10 10 10 9 9 8 8 9 8 7 6 5 4 3 2 1 1 2 3 3
12 12 12 11 10 9 9 9 7 6 6 8 9 10 10 9 10 10 10 10 9 10 10 10 9 9 9 9 9 9 9 9 9 8 7 6 5 4 3 2 1 1 2 3
13 13 12 11 11 10 10 9 8 7 7 8 8 10 9 9 9 10 10 10 10 10 11 10 9 9 8 9 9 10 10 9 10 9 8 7 6 5 4 2 2 2 2 2
14 13 12 11 12 11 11 11 11 10 9 9 9 9 9 10 10 10 11 11 10 10 10 10 10 9 8 9 10 10 10 10 10 9 9 9 7 6 5 4 3 2 2 2
14 13 12 11 11 11 11 11 11 10 9 9 9 10 10 10 10 10 10 10 10 10 10 11 10 10 9 9 11 10 10 10 10 10 9 9 8 7 6 5 4 3 3 3
14 13 12 11 11 11 11 10 10 10 10 11 10 10 11 11 11 10 11 10 10 11 11 11 11 10 10 10 11 11 10 10 10 10 10 10 9 8 8 7 6 5 5 5
14 13 12 12 11 12 11 11 11 10 10 10 10 10 10 11 11 12 12 11 11 11 12 11 11 11 11 11 11 12 11 11 11 11 11 11 10 10 9 9 8 7 7 7
15 15 13 12 11 11 11 11 11 11 11 10 11 11 11 12 11 12 12 12 12 11 12 12 12 11 11 11 11 12 12 12 11 12 11 12 11 11 10 10 9 9 8 8
17 16 14 13 13 12 12 12 12 12 12 11 11 12 12 13 12 12 12 12 12 12 12 12 13 12 12 11 12 12 13 12 12 12 12 12 12 12 11 11 11 10 10 10
17 17 15 14 14 13 12 12 13 12 13 13 13 13 12 13 13 12 12 12 12 12 12 12 13 13 13 13 13 12 13 13 13 13 13 13 14 13 13 12 13 12 12 12
17 17 16 15 13 13 13 12 12 13 13 13 14 13 13 13 13 13 12 13 12 12 12 12 13 13 13 14 14 14 13 13 13 12 12 14 15 15 15 14 14 15 14 14
18 17 16 15 15 15 12 12 13 13 14 14 14 14 13 12 13 13 12 13 13 13 13 13 13 13 14 14 14 13 14 14 14 13 14 15 15 15 15 15 15 15 15 16
20 19 17 16 15 15 14 13 13 13 13 13 14 14 13 13 12 12 12 12 13 13 13 13 13 13 14 15 15 14 15 14 14 15 15 15 15 15 15 15 16 16 17 17
21 19 19 17 17 16 14 13 13 13 13 13 14 13 12 13 13 12 12 12 12 12 13 13 13 14 14 15 15 16 16 16 16 16 16 16 15 15 16 17 17 17 18 18
22 22 21 20 19 18 16 15 14 13 13 14 14 13 13 13 12 12 12 12 12 12 12 12 12 13 14 15 16 16 17 17 17 17 16 17 17 17 18 18 18 19 19 19
24 24 22 21 22 21 17 16 16 15 14 14 14 14 14 14 13 13 12 12 12 12 13 13 13 13 14 15 16 17 17 18 18 18 18 18 18 18 19 20 20 20 20 20
26 24 24 24 23 21 18 17 16 15 15 15 15 15 16 15 15 14 14 13 13 13 13 14 14 14 15 15 16 16 17 18 18 18 18 19 19 20 20 20 20 20 21 21
27 25 25 25 24 23 20 19 19 17 17 17 17 16 17 17 16 15 15 14 13 13 14 14 15 15 15 16 16 17 17 18 18 19 19 19 20 20 20 21 21 22 22 22
29 28 27 26 25 24 23 22 21 19 19 19 18 18 17 17 17 17 16 15 14 14 14 15 16 17 17 18 18 18 18 19 19 19 19 19 20 21 21 22 22 23 23 24
30 29 28 28 26 25 24 24 23 21 21 20 20 20 19 18 18 18 17 16 16 16 16 17 17 17 17 18 18 19 20 20 20 20 20 20 21 22 22 23 23 23 25 26

GEFSCGP_500_meanwind_174.txt.gz
Wind_Speed
11 10 10 10 10 11 11 10 9 9 9 9 9 9 9 9 9 9 8 8 8 8 7 7 7 6 6 5 5 4 5 3 2 1 0 1 2 3 4 5 6 6 7 7
10 10 10 10 11 10 10 9 9 8 9 9 8 8 8 9 9 9 9 9 8 7 7 7 8 7 7 6 6 6 5 5 4 2 1 0 2 2 3 4 5 5 6 6
10 10 10 10 10 10 9 10 9 8 8 8 8 8 9 9 9 9 9 9 8 7 7 7 7 8 8 7 7 7 6 6 5 3 2 1 1 2 3 4 5 5 5 6
11 10 10 10 9 9 9 9 9 9 9 8 8 7 8 8 8 9 10 10 9 8 7 7 8 8 8 7 7 7 7 7 6 4 3 2 1 1 2 3 4 4 5 5
11 10 10 10 9 9 9 9 9 8 7 8 8 7 7 7 8 8 9 10 10 8 7 7 8 9 9 8 8 8 8 8 7 5 4 3 2 1 1 3 3 3 4 5
11 11 10 9 9 9 9 9 8 7 7 8 8 8 6 6 7 7 9 10 10 9 8 8 9 9 9 8 8 8 8 8 7 6 6 4 3 2 1 1 2 2 3 4
11 11 10 9 9 9 8 8 8 8 7 7 8 7 6 6 7 8 8 9 9 9 9 8 9 9 9 9 9 9 8 7 7 6 6 5 4 3 2 0 1 2 3 4
12 12 11 10 9 9 8 8 8 8 8 7 7 7 7 7 8 8 8 8 9 9 9 9 9 9 9 8 9 9 8 7 7 7 7 6 5 4 3 2 2 1 1 2
12 12 12 11 10 10 9 7 8 9 8 8 7 7 8 8 8 8 8 8 8 9 9 9 9 9 9 9 8 9 8 8 7 8 8 7 6 5 4 3 3 2 1 1
12 12 12 11 11 11 10 8 9 9 9 7 7 7 7 7 7 8 8 8 8 8 9 10 10 9 10 10 9 8 8 8 8 8 8 8 7 6 5 5 4 3 2 2
13 13 13 13 12 11 11 10 10 9 9 9 8 6 6 6 7 7 8 8 9 8 9 9 10 10 10 10 9 9 9 9 9 9 9 8 7 7 7 6 5 4 3 3
14 13 13 14 12 12 11 11 10 10 10 10 8 7 7 7 7 8 8 9 9 9 9 9 10 10 10 10 10 9 10 10 9 9 10 9 9 9 8 7 7 6 6 6
15 15 14 14 14 13 12 12 11 11 11 10 10 8 8 8 7 8 9 9 9 9 9 9 9 10 10 10 10 9 10 10 10 10 10 10 10 10 10 9 8 8 8 7
17 16 15 14 14 14 13 12 12 11 11 10 10 9 8 8 8 9 9 9 9 9 9 9 9 9 10 11 10 10 10 11 11 11 11 10 11 11 11 10 10 10 9 9
18 17 16 15 15 15 14 13 12 12 11 10 9 9 9 9 9 8 9 10 9 9 9 9 9 9 10 11 11 11 11 11 11 11 12 12 11 12 12 12 12 12 11 11
18 18 17 16 16 15 15 13 13 12 12 11 10 10 8 8 9 9 9 9 10 10 10 10 10 10 10 11 11 12 12 12 12 12 12 12 12 12 13 13 13 13 12 12
19 19 19 18 16 16 16 14 13 12 12 11 11 10 9 9 8 8 8 9 10 10 11 11 11 11 11 11 12 12 13 13 13 12 12 12 12 13 13 14 14 14 14 14
19 20 21 19 18 17 15 15 14 13 12 12 11 10 10 9 9 8 8 9 10 11 11 11 11 11 12 12 12 13 14 13 13 13 13 13 13 13 14 15 16 16 16 16
20 20 21 19 19 18 16 15 14 14 13 13 12 11 10 10 10 10 9 9 10 11 12 12 12 12 12 13 13 14 14 14 14 14 14 15 15 15 15 15 16 16 17 17
22 22 22 21 20 19 17 16 15 15 14 13 13 12 12 12 12 11 11 10 11 11 12 13 13 13 13 13 13 14 15 14 15 15 15 16 16 17 17 17 17 17 18 18
23 23 22 22 21 19 17 16 16 15 13 13 13 13 13 12 12 12 12 12 12 12 12 13 13 14 14 14 14 14 14 15 15 16 16 16 17 17 18 17 18 18 19 19
22 22 22 22 21 17 17 17 16 14 14 14 14 13 13 13 13 14 13 13 13 13 12 13 14 14 15 15 16 16 15 16 16 17 17 18 18 19 19 19 19 20 20 20
23 22 22 22 21 18 16 17 16 15 14 14 14 13 13 13 14 13 13 14 13 13 13 13 14 14 15 15 16 17 17 17 17 18 19 20 20 20 20 20 20 20 21 21
24 24 24 22 20 19 19 18 17 16 15 14 14 14 14 15 15 14 14 14 14 13 13 14 14 14 15 16 16 17 17 18 18 19 20 21 22 22 21 21 21 22 22 22
26 25 25 24 22 22 21 20 19 18 17 16 15 15 15 16 16 15 15 15 14 14 13 13 14 15 15 15 16 17 17 18 19 19 19 20 21 21 22 22 22 22 22 23
27 27 27 26 24 24 23 22 21 20 19 18 18 17 16 16 15 16 16 16 16 16 16 15 15 15 15 15 16 17 18 18 19 19 19 19 20 21 21 22 23 23 24 24